Location: Mountain Grove
(34.0887°N, 86.6172°W)
Time: 00:43:42
(UTC+00:00)

COSMOS 2455 - Pass Details

Date: 14 July 2020
Orbit: 898 x 911 km, 67.1° (Epoch: 12 August)

Event Time Altitude Azimuth Distance (km) Brightness Sun altitude
Rises 03:24:09 0° 346° (NNW) 3,547 7.0 -24.1°
Reaches altitude 10° 03:27:12 10° 1° (N) 2,602 5.9 -24.5°
Maximum altitude 03:31:59 24° 53° (NE) 1,800 4.4 -25.1°
Enters shadow 03:33:18 22° 72° (ENE) 1,873 4.3 -25.2°
